This is the latest recevied weather packets stored in our database for station/object ED4YAZ-13. If no packets are shown the sender has not sent any weather packets the latest 10 day(s).
| Time | Temp. | Humidity | Pressure | Rain* | Wind** | Luminosity | Snow |
|---|---|---|---|---|---|---|---|
| 1778034130 | 7.22° C | 61% | 1015.2 hPa | - | - | - | - |
| 1778033720 | 7.22° C | 60% | 1015.2 hPa | - | - | - | - |
| 1778033530 | 7.22° C | 60% | 1015.2 hPa | - | - | - | - |
| 1778032915 | 7.22° C | 59% | 1015.1 hPa | - | - | - | - |
| 1778032315 | 7.78° C | 56% | 1014.9 hPa | - | - | - | - |
| 1778031217 | 8.33° C | 54% | 1014.5 hPa | - | - | - | - |
| 1778030611 | 8.89° C | 54% | 1014.6 hPa | - | - | - | - |
| 1778030011 | 8.89° C | 54% | 1014.6 hPa | - | - | - | - |
| 1778029401 | 8.89° C | 53% | 1014.8 hPa | - | - | - | - |
| 1778028797 | 8.89° C | 52% | 1014.8 hPa | - | - | - | - |
| 1778028197 | 9.44° C | 52% | 1014.8 hPa | - | - | - | - |
| 1778027595 | 9.44° C | 52% | 1014.9 hPa | - | - | - | - |
| 1778026995 | 9.44° C | 52% | 1015 hPa | - | - | - | - |
| 1778026763 | 8.89° C | 52% | 1015.2 hPa | - | - | - | - |
| 1778026763 | 9.44° C | 52% | 1015.3 hPa | - | - | - | - |
| 1778026395 | 8.89° C | 52% | 1015.2 hPa | - | - | - | - |
| 1778025788 | 9.44° C | 52% | 1015.3 hPa | - | - | - | - |
| 1778025182 | 9.44° C | 52% | 1015.3 hPa | - | - | - | - |
| 1778024569 | 9.44° C | 52% | 1015.2 hPa | - | - | - | - |
| 1778023964 | 9.44° C | 52% | 1015.3 hPa | - | - | - | - |
| 1778023352 | 9.44° C | 51% | 1015.1 hPa | - | - | - | - |
| 1778022752 | 10° C | 51% | 1015.1 hPa | - | - | - | - |
| 1778022152 | 9.44° C | 51% | 1015.1 hPa | - | - | - | - |
| 1778021552 | 9.44° C | 52% | 1015.1 hPa | - | - | - | - |
| 1778020952 | 9.44° C | 52% | 1015.2 hPa | - | - | - | - |
* Rain since midnight (hover to see other rain measurements)
** Current wind speed in m/s (hover to see current wind gust speed)